Zurück zum Katalog

STARLINK-31330

AktivKommunikationVLEO
NORAD 58951·PAYLOAD·🇺🇸 United States

Gestartet Feb 10, 2024 von Vandenberg Space Force Base

Loading…

Nächste Überflüge (nächste 24 Stunden)

TLE

AktuellSource: CelesTrak SupGP

Epoche: Sep 14, 2026, 22:33 UTC

1 58951C 24027W   26257.94006944 -.00051081  00000+0 -15090-2 0  2571
2 58951  53.1572 143.6542 0001280  78.5126 194.9512 15.34419698    10

Verfolge STARLINK-31330 in Echtzeit mit AllMySat

Download on the App Store